Location: Bacea
(45.9500°N, 22.6667°E)
Time: 12:44:08
(UTC+00:00)

Cosmos 489 Rocket - Pass Details

Date: 24 May 2022
Orbit: 952 x 983 km, 74.0° (Epoch: 03 July)

Event Time Altitude Azimuth Distance (km) Brightness Sun altitude
Rises 00:57:45 0° 345° (NNW) 3,642 8.1 -15.0°
Reaches altitude 10° 01:01:00 10° 2° (N) 2,695 7.7 -14.7°
Maximum altitude 01:05:35 21° 49° (NE) 2,021 7.2 -14.2°
Drops below altitude 10° 01:10:09 10° 97° (E) 2,698 7.3 -13.7°
Sets 01:13:23 0° 113° (ESE) 3,646 7.7 -13.3°
